Time,TemperatureF,DewpointF,PressureIn,WindDirection,WindDirectionDegrees,WindSpeedMPH,WindSpeedGustMPH,Humidity,HourlyPrecipIn,Conditions,Clouds,dailyrainin,SoftwareType,DateUTC
2013-02-18 00:01:00,20.4,16.8,29.40,NE,45,0.0,0.0,86,0.00,,,0.00,WUHU216HW,2013-02-18 09:01:00,
2013-02-18 00:06:00,20.3,16.7,29.40,NE,45,0.0,0.0,86,0.00,,,0.00,WUHU216HW,2013-02-18 09:06:00,
2013-02-18 00:11:00,20.1,16.5,29.40,NE,45,0.0,0.0,86,0.00,,,0.00,WUHU216HW,2013-02-18 09:11:00,
2013-02-18 00:16:00,19.9,16.3,29.40,NE,45,0.0,0.0,86,0.00,,,0.00,WUHU216HW,2013-02-18 09:16:00,
2013-02-18 00:21:00,19.7,16.1,29.40,NE,45,0.0,0.0,86,0.00,,,0.00,WUHU216HW,2013-02-18 09:21:00,
2013-02-18 00:26:00,19.5,15.9,29.40,NE,45,0.0,0.0,86,0.00,,,0.00,WUHU216HW,2013-02-18 09:26:00,
2013-02-18 00:31:00,19.4,15.8,29.40,NNE,23,0.0,0.0,86,0.00,,,0.00,WUHU216HW,2013-02-18 09:31:00,
2013-02-18 00:36:00,19.0,15.4,29.40,NE,45,0.0,0.0,86,0.00,,,0.00,WUHU216HW,2013-02-18 09:36:00,
2013-02-18 00:41:00,18.8,15.2,29.41,NE,45,0.0,0.0,86,0.00,,,0.00,WUHU216HW,2013-02-18 09:41:00,
2013-02-18 00:46:00,18.5,14.9,29.42,NE,45,0.0,0.0,86,0.00,,,0.00,WUHU216HW,2013-02-18 09:46:00,
2013-02-18 00:51:00,18.3,14.7,29.42,NE,45,0.0,0.0,86,0.00,,,0.00,WUHU216HW,2013-02-18 09:51:00,
2013-02-18 00:56:00,18.1,14.5,29.42,NE,45,0.0,0.0,86,0.00,,,0.00,WUHU216HW,2013-02-18 09:56:00,
2013-02-18 01:01:00,17.9,14.3,29.42,NE,45,0.0,0.0,86,0.00,,,0.00,WUHU216HW,2013-02-18 10:01:00,
2013-02-18 01:06:00,17.7,14.1,29.42,NE,45,0.0,0.0,86,0.00,,,0.00,WUHU216HW,2013-02-18 10:06:00,
2013-02-18 01:11:00,17.4,13.8,29.42,NE,45,0.0,0.0,86,0.00,,,0.00,WUHU216HW,2013-02-18 10:11:00,
2013-02-18 01:16:00,17.4,13.8,29.42,NE,45,0.0,0.0,86,0.00,,,0.00,WUHU216HW,2013-02-18 10:16:00,
2013-02-18 01:21:00,17.2,13.6,29.42,NE,45,0.0,0.0,86,0.00,,,0.00,WUHU216HW,2013-02-18 10:21:00,
2013-02-18 01:26:00,17.0,13.4,29.42,NE,45,0.0,0.0,86,0.00,,,0.00,WUHU216HW,2013-02-18 10:26:00,
2013-02-18 01:31:00,16.8,13.2,29.42,NE,45,0.0,0.0,86,0.00,,,0.00,WUHU216HW,2013-02-18 10:31:00,
2013-02-18 01:36:00,16.5,12.9,29.42,NE,45,0.0,0.0,86,0.00,,,0.00,WUHU216HW,2013-02-18 10:36:00,
2013-02-18 01:41:00,16.3,12.7,29.42,NE,45,0.0,0.0,86,0.00,,,0.00,WUHU216HW,2013-02-18 10:41:00,
2013-02-18 01:46:00,16.3,12.5,29.42,NE,45,0.0,0.0,85,0.00,,,0.00,WUHU216HW,2013-02-18 10:46:00,
2013-02-18 01:51:00,15.8,12.0,29.42,NE,45,0.0,0.0,85,0.00,,,0.00,WUHU216HW,2013-02-18 10:51:00,
2013-02-18 01:56:00,15.6,11.8,29.42,NNE,23,0.0,0.0,85,0.00,,,0.00,WUHU216HW,2013-02-18 10:56:00,
2013-02-18 02:01:00,15.4,11.6,29.42,NE,45,0.0,0.0,85,0.00,,,0.00,WUHU216HW,2013-02-18 11:01:00,
2013-02-18 02:06:00,15.0,11.3,29.42,NE,45,0.0,0.0,85,0.00,,,0.00,WUHU216HW,2013-02-18 11:06:00,
2013-02-18 02:11:00,14.9,11.1,29.43,NE,45,0.0,0.0,85,0.00,,,0.00,WUHU216HW,2013-02-18 11:11:00,
2013-02-18 02:16:00,14.3,10.6,29.43,ENE,68,0.0,0.0,85,0.00,,,0.00,WUHU216HW,2013-02-18 11:16:00,
2013-02-18 02:21:00,14.1,10.4,29.42,ENE,68,0.0,0.0,85,0.00,,,0.00,WUHU216HW,2013-02-18 11:21:00,
2013-02-18 02:26:00,13.8,10.1,29.42,NE,45,0.0,0.0,85,0.00,,,0.00,WUHU216HW,2013-02-18 11:26:00,
2013-02-18 02:31:00,13.6,9.9,29.43,ENE,68,0.0,0.0,85,0.00,,,0.00,WUHU216HW,2013-02-18 11:31:00,
2013-02-18 02:36:00,13.2,9.5,29.43,NE,45,0.0,0.0,85,0.00,,,0.00,WUHU216HW,2013-02-18 11:36:00,
2013-02-18 02:41:00,13.1,9.1,29.43,NE,45,0.0,0.0,84,0.00,,,0.00,WUHU216HW,2013-02-18 11:41:00,
2013-02-18 02:47:00,12.7,8.7,29.43,NE,45,0.0,0.0,84,0.00,,,0.00,WUHU216HW,2013-02-18 11:47:00,
2013-02-18 02:51:00,12.0,8.0,29.43,NE,45,0.0,0.0,84,0.00,,,0.00,WUHU216HW,2013-02-18 11:51:00,
2013-02-18 02:56:00,11.6,7.7,29.43,NE,45,0.0,0.0,84,0.00,,,0.00,WUHU216HW,2013-02-18 11:56:00,
2013-02-18 03:01:00,11.1,7.1,29.44,NE,45,0.0,0.0,84,0.00,,,0.00,WUHU216HW,2013-02-18 12:01:00,
2013-02-18 03:06:00,10.5,6.6,29.44,NE,45,0.0,0.0,84,0.00,,,0.00,WUHU216HW,2013-02-18 12:06:00,
2013-02-18 03:11:00,10.2,6.2,29.44,ENE,68,0.0,0.0,84,0.00,,,0.00,WUHU216HW,2013-02-18 12:11:00,
2013-02-18 03:16:00,9.5,5.5,29.45,ENE,68,0.0,0.0,84,0.00,,,0.00,WUHU216HW,2013-02-18 12:16:00,
2013-02-18 03:22:00,9.1,5.2,29.45,ENE,68,0.0,0.0,84,0.00,,,0.00,WUHU216HW,2013-02-18 12:22:00,
2013-02-18 03:27:00,8.7,4.9,29.45,ENE,68,0.0,0.0,84,0.00,,,0.00,WUHU216HW,2013-02-18 12:27:00,
2013-02-18 03:32:00,8.2,4.3,29.45,ENE,68,0.0,0.0,84,0.00,,,0.00,WUHU216HW,2013-02-18 12:32:00,
2013-02-18 03:37:00,8.0,4.2,29.44,ENE,68,0.0,0.0,84,0.00,,,0.00,WUHU216HW,2013-02-18 12:37:00,
2013-02-18 03:42:00,7.5,3.6,29.45,ENE,68,0.0,0.0,84,0.00,,,0.00,WUHU216HW,2013-02-18 12:42:00,
2013-02-18 03:47:00,7.1,3.3,29.45,ENE,68,0.0,0.0,84,0.00,,,0.00,WUHU216HW,2013-02-18 12:47:00,
2013-02-18 03:52:00,6.6,2.7,29.46,NE,45,0.0,0.0,84,0.00,,,0.00,WUHU216HW,2013-02-18 12:52:00,
2013-02-18 03:56:00,6.4,2.5,29.46,NE,45,0.0,0.0,84,0.00,,,0.00,WUHU216HW,2013-02-18 12:56:00,
2013-02-18 04:01:00,6.0,1.9,29.46,NE,45,0.0,0.0,83,0.00,,,0.00,WUHU216HW,2013-02-18 13:01:00,
2013-02-18 04:06:00,5.3,1.2,29.46,NE,45,0.0,0.0,83,0.00,,,0.00,WUHU216HW,2013-02-18 13:06:00,
2013-02-18 04:11:00,4.8,0.7,29.46,NE,45,0.0,0.0,83,0.00,,,0.00,WUHU216HW,2013-02-18 13:11:00,
2013-02-18 04:16:00,4.2,0.1,29.46,NE,45,0.0,0.0,83,0.00,,,0.00,WUHU216HW,2013-02-18 13:16:00,
2013-02-18 04:22:00,3.9,-0.1,29.46,NE,45,0.0,0.0,83,0.00,,,0.00,WUHU216HW,2013-02-18 13:22:00,
2013-02-18 04:27:00,3.5,-0.7,29.46,NE,45,0.0,0.0,82,0.00,,,0.00,WUHU216HW,2013-02-18 13:27:00,
2013-02-18 04:32:00,3.7,-0.3,29.46,NE,45,0.0,0.0,83,0.00,,,0.00,WUHU216HW,2013-02-18 13:32:00,
2013-02-18 04:37:00,3.3,-0.9,29.47,NE,45,0.0,0.0,82,0.00,,,0.00,WUHU216HW,2013-02-18 13:37:00,
2013-02-18 04:42:00,3.3,-0.9,29.47,ENE,68,0.0,0.0,82,0.00,,,0.00,WUHU216HW,2013-02-18 13:42:00,
2013-02-18 04:47:00,3.0,-1.3,29.47,NE,45,0.0,0.0,82,0.00,,,0.00,WUHU216HW,2013-02-18 13:47:00,
2013-02-18 04:52:00,2.8,-1.5,29.47,NE,45,0.0,0.0,82,0.00,,,0.00,WUHU216HW,2013-02-18 13:52:00,
2013-02-18 04:57:00,2.8,-1.5,29.47,ENE,68,0.0,0.0,82,0.00,,,0.00,WUHU216HW,2013-02-18 13:57:00,
2013-02-18 05:02:00,2.4,-1.6,29.47,NE,45,0.0,0.0,83,0.00,,,0.00,WUHU216HW,2013-02-18 14:02:00,
2013-02-18 05:07:00,2.4,-1.8,29.46,NE,45,0.0,0.0,82,0.00,,,0.00,WUHU216HW,2013-02-18 14:07:00,
2013-02-18 05:12:00,2.3,-2.0,29.46,NE,45,0.0,0.0,82,0.00,,,0.00,WUHU216HW,2013-02-18 14:12:00,
2013-02-18 05:17:00,2.4,-1.6,29.46,WNW,293,0.0,0.0,83,0.00,,,0.00,WUHU216HW,2013-02-18 14:17:00,
2013-02-18 05:22:00,2.4,-1.6,29.47,WNW,293,0.0,0.0,83,0.00,,,0.00,WUHU216HW,2013-02-18 14:22:00,
2013-02-18 05:27:00,2.8,-1.2,29.47,WNW,293,0.0,0.0,83,0.00,,,0.00,WUHU216HW,2013-02-18 14:27:00,
2013-02-18 05:32:00,2.8,-1.2,29.47,WNW,293,0.0,0.0,83,0.00,,,0.00,WUHU216HW,2013-02-18 14:32:00,
2013-02-18 05:37:00,2.6,-1.4,29.47,WNW,293,0.0,0.0,83,0.00,,,0.00,WUHU216HW,2013-02-18 14:37:00,
2013-02-18 05:42:00,2.3,-1.8,29.47,NNE,23,0.0,0.0,83,0.00,,,0.00,WUHU216HW,2013-02-18 14:42:00,
2013-02-18 05:47:00,1.9,-2.1,29.47,ENE,68,0.0,0.0,83,0.00,,,0.00,WUHU216HW,2013-02-18 14:47:00,
2013-02-18 05:52:00,1.7,-2.3,29.47,NE,45,0.0,0.0,83,0.00,,,0.00,WUHU216HW,2013-02-18 14:52:00,
2013-02-18 05:57:00,1.5,-2.5,29.47,ENE,68,0.0,0.0,83,0.00,,,0.00,WUHU216HW,2013-02-18 14:57:00,
2013-02-18 06:02:00,1.2,-2.8,29.47,ENE,68,0.0,0.0,83,0.00,,,0.00,WUHU216HW,2013-02-18 15:02:00,
2013-02-18 06:07:00,0.8,-3.4,29.47,ENE,68,0.0,0.0,82,0.00,,,0.00,WUHU216HW,2013-02-18 15:07:00,
2013-02-18 06:12:00,0.5,-3.7,29.48,ENE,68,0.0,0.0,82,0.00,,,0.00,WUHU216HW,2013-02-18 15:12:00,
2013-02-18 06:17:00,0.3,-3.9,29.48,ENE,68,0.0,0.0,82,0.00,,,0.00,WUHU216HW,2013-02-18 15:17:00,
2013-02-18 06:22:00,0.1,-4.1,29.48,ENE,68,0.0,0.0,82,0.00,,,0.00,WUHU216HW,2013-02-18 15:22:00,
2013-02-18 06:27:00,0.0,-4.2,29.48,ENE,68,0.0,0.0,82,0.00,,,0.00,WUHU216HW,2013-02-18 15:27:00,
2013-02-18 06:32:00,-0.2,-4.4,29.48,ENE,68,0.0,0.0,82,0.00,,,0.00,WUHU216HW,2013-02-18 15:32:00,
2013-02-18 06:37:00,-0.5,-4.7,29.48,ENE,68,0.0,0.0,82,0.00,,,0.00,WUHU216HW,2013-02-18 15:37:00,
2013-02-18 06:42:00,-0.7,-4.9,29.47,ENE,68,0.0,0.0,82,0.00,,,0.00,WUHU216HW,2013-02-18 15:42:00,
2013-02-18 06:47:00,-1.3,-5.5,29.48,ENE,68,0.0,0.0,82,0.00,,,0.00,WUHU216HW,2013-02-18 15:47:00,
2013-02-18 06:52:00,-1.6,-5.8,29.48,ENE,68,0.0,0.0,82,0.00,,,0.00,WUHU216HW,2013-02-18 15:52:00,
2013-02-18 06:57:00,-1.6,-5.8,29.48,ENE,68,0.0,0.0,82,0.00,,,0.00,WUHU216HW,2013-02-18 15:57:00,
2013-02-18 07:02:00,-2.0,-6.2,29.48,ENE,68,0.0,0.0,82,0.00,,,0.00,WUHU216HW,2013-02-18 16:02:00,
2013-02-18 07:07:00,-2.3,-6.5,29.48,ENE,68,0.0,0.0,82,0.00,,,0.00,WUHU216HW,2013-02-18 16:07:00,
2013-02-18 07:12:00,-2.3,-6.5,29.48,ENE,68,0.0,0.0,82,0.00,,,0.00,WUHU216HW,2013-02-18 16:12:00,
2013-02-18 07:17:00,-2.7,-6.9,29.48,ENE,68,0.0,0.0,82,0.00,,,0.00,WUHU216HW,2013-02-18 16:17:00,
2013-02-18 07:22:00,-2.9,-7.1,29.48,ENE,68,0.0,0.0,82,0.00,,,0.00,WUHU216HW,2013-02-18 16:22:00,
2013-02-18 07:27:00,-3.2,-7.4,29.48,ENE,68,0.0,0.0,82,0.00,,,0.00,WUHU216HW,2013-02-18 16:27:00,
2013-02-18 07:32:00,-3.6,-8.0,29.49,ENE,68,0.0,0.0,81,0.00,,,0.00,WUHU216HW,2013-02-18 16:32:00,
2013-02-18 07:37:00,-3.8,-8.2,29.48,ENE,68,0.0,0.0,81,0.00,,,0.00,WUHU216HW,2013-02-18 16:37:00,
2013-02-18 07:42:00,-4.3,-8.8,29.49,ENE,68,0.0,0.0,81,0.00,,,0.00,WUHU216HW,2013-02-18 16:42:00,
2013-02-18 07:47:00,-4.7,-9.1,29.49,ENE,68,0.0,0.0,81,0.00,,,0.00,WUHU216HW,2013-02-18 16:47:00,
2013-02-18 07:52:00,-4.9,-9.3,29.49,ENE,68,0.0,0.0,81,0.00,,,0.00,WUHU216HW,2013-02-18 16:52:00,
2013-02-18 07:57:00,-5.0,-9.5,29.50,ENE,68,0.0,0.0,81,0.00,,,0.00,WUHU216HW,2013-02-18 16:57:00,
2013-02-18 08:02:00,-5.2,-9.5,29.50,ENE,68,0.0,0.0,81,0.00,,,0.00,WUHU216HW,2013-02-18 17:02:00,
2013-02-18 08:07:00,-5.6,-10.0,29.49,ENE,68,0.0,0.0,81,0.00,,,0.00,WUHU216HW,2013-02-18 17:07:00,
2013-02-18 08:12:00,-5.8,-10.2,29.49,ENE,68,0.0,0.0,81,0.00,,,0.00,WUHU216HW,2013-02-18 17:12:00,
2013-02-18 08:17:00,-5.9,-10.6,29.49,ENE,68,0.0,0.0,80,0.00,,,0.00,WUHU216HW,2013-02-18 17:17:00,
2013-02-18 08:22:00,-6.3,-11.0,29.49,ENE,68,0.0,0.0,80,0.00,,,0.00,WUHU216HW,2013-02-18 17:22:00,
2013-02-18 08:27:00,-6.5,-11.2,29.49,ENE,68,0.0,0.0,80,0.00,,,0.00,WUHU216HW,2013-02-18 17:27:00,
2013-02-18 08:32:00,-6.7,-11.3,29.50,ENE,68,0.0,0.0,80,0.00,,,0.00,WUHU216HW,2013-02-18 17:32:00,
2013-02-18 08:37:00,-6.8,-11.5,29.49,ENE,68,0.0,0.0,80,0.00,,,0.00,WUHU216HW,2013-02-18 17:37:00,
2013-02-18 08:42:00,-7.0,-11.7,29.49,ENE,68,0.0,0.0,80,0.00,,,0.00,WUHU216HW,2013-02-18 17:42:00,
2013-02-18 08:48:00,-7.0,-11.7,29.49,NE,45,0.0,0.0,80,0.00,,,0.00,WUHU216HW,2013-02-18 17:48:00,
2013-02-18 08:53:00,-7.2,-11.9,29.49,NE,45,0.0,0.0,80,0.00,,,0.00,WUHU216HW,2013-02-18 17:53:00,
2013-02-18 08:58:00,-7.4,-12.1,29.49,NE,45,0.0,0.0,80,0.00,,,0.00,WUHU216HW,2013-02-18 17:58:00,
2013-02-18 09:03:00,-7.2,-11.9,29.49,NE,45,0.0,0.0,80,0.00,,,0.00,WUHU216HW,2013-02-18 18:03:00,
2013-02-18 09:08:00,-7.2,-11.9,29.49,NE,45,0.0,0.0,80,0.00,,,0.00,WUHU216HW,2013-02-18 18:08:00,
2013-02-18 09:13:00,-7.2,-11.9,29.50,NE,45,0.0,0.0,80,0.00,,,0.00,WUHU216HW,2013-02-18 18:13:00,
2013-02-18 09:18:00,-7.4,-12.1,29.50,NE,45,0.0,0.0,80,0.00,,,0.00,WUHU216HW,2013-02-18 18:18:00,
2013-02-18 09:23:00,-7.4,-12.1,29.50,NE,45,0.0,0.0,80,0.00,,,0.00,WUHU216HW,2013-02-18 18:23:00,
2013-02-18 09:28:00,-7.4,-12.1,29.50,NE,45,0.0,0.0,80,0.00,,,0.00,WUHU216HW,2013-02-18 18:28:00,
2013-02-18 09:33:00,-7.6,-12.2,29.50,NE,45,0.0,0.0,80,0.00,,,0.00,WUHU216HW,2013-02-18 18:33:00,
2013-02-18 09:38:00,-7.4,-12.1,29.51,NE,45,0.0,0.0,80,0.00,,,0.00,WUHU216HW,2013-02-18 18:38:00,
2013-02-18 09:43:00,-7.4,-12.1,29.51,NE,45,0.0,0.0,80,0.00,,,0.00,WUHU216HW,2013-02-18 18:43:00,
2013-02-18 09:48:00,-7.2,-11.9,29.51,NE,45,0.0,0.0,80,0.00,,,0.00,WUHU216HW,2013-02-18 18:48:00,
2013-02-18 09:53:00,-7.0,-11.7,29.51,NE,45,0.0,0.0,80,0.00,,,0.00,WUHU216HW,2013-02-18 18:53:00,
2013-02-18 09:58:00,-6.7,-11.3,29.52,NE,45,0.0,0.0,80,0.00,,,0.00,WUHU216HW,2013-02-18 18:58:00,
2013-02-18 10:03:00,-6.3,-10.7,29.52,NE,45,0.0,0.0,81,0.00,,,0.00,WUHU216HW,2013-02-18 19:03:00,
2013-02-18 10:08:00,-5.9,-10.4,29.52,NE,45,0.0,0.0,81,0.00,,,0.00,WUHU216HW,2013-02-18 19:08:00,
2013-02-18 10:13:00,-5.2,-9.7,29.51,NE,45,0.0,0.0,81,0.00,,,0.00,WUHU216HW,2013-02-18 19:13:00,
2013-02-18 10:18:00,-4.3,-7.8,29.51,NE,45,0.0,0.0,82,0.00,,,0.00,WUHU216HW,2013-02-18 19:18:00,
2013-02-18 10:23:00,-3.2,-7.4,29.51,NE,45,0.0,0.0,82,0.00,,,0.00,WUHU216HW,2013-02-18 19:23:00,
2013-02-18 10:28:00,-2.2,-6.4,29.51,NE,45,0.0,0.0,82,0.00,,,0.00,WUHU216HW,2013-02-18 19:28:00,
2013-02-18 10:33:00,0.6,-2.8,29.52,NE,45,0.0,0.0,85,0.00,,,0.00,WUHU216HW,2013-02-18 19:33:00,
2013-02-18 10:38:00,3.0,-0.5,29.51,East,90,0.0,0.0,85,0.00,,,0.00,WUHU216HW,2013-02-18 19:38:00,
2013-02-18 10:43:00,4.1,0.2,29.51,East,90,0.0,0.0,84,0.00,,,0.00,WUHU216HW,2013-02-18 19:43:00,
2013-02-18 10:48:00,4.8,0.7,29.51,East,90,0.0,0.0,83,0.00,,,0.00,WUHU216HW,2013-02-18 19:48:00,
2013-02-18 10:53:00,4.8,0.7,29.51,East,90,0.0,0.0,83,0.00,,,0.00,WUHU216HW,2013-02-18 19:53:00,
2013-02-18 10:58:00,4.8,0.7,29.51,East,90,0.0,0.0,83,0.00,,,0.00,WUHU216HW,2013-02-18 19:58:00,
2013-02-18 11:03:00,5.0,0.6,29.52,East,90,0.0,0.0,82,0.00,,,0.00,WUHU216HW,2013-02-18 20:03:00,
2013-02-18 11:08:00,5.3,1.0,29.51,East,90,0.0,0.0,82,0.00,,,0.00,WUHU216HW,2013-02-18 20:08:00,
2013-02-18 11:13:00,5.7,1.6,29.52,East,90,0.0,0.0,83,0.00,,,0.00,WUHU216HW,2013-02-18 20:13:00,
2013-02-18 11:18:00,7.5,3.4,29.52,East,90,0.0,0.0,83,0.00,,,0.00,WUHU216HW,2013-02-18 20:18:00,
2013-02-18 11:23:00,8.0,3.9,29.52,East,90,0.0,0.0,83,0.00,,,0.00,WUHU216HW,2013-02-18 20:23:00,
2013-02-18 11:28:00,8.7,4.6,29.52,East,90,0.0,0.0,83,0.00,,,0.00,WUHU216HW,2013-02-18 20:28:00,
2013-02-18 11:33:00,9.3,5.1,29.52,East,90,0.0,0.0,83,0.00,,,0.00,WUHU216HW,2013-02-18 20:33:00,
2013-02-18 11:39:00,9.6,5.4,29.51,East,90,0.0,0.0,83,0.00,,,0.00,WUHU216HW,2013-02-18 20:39:00,
2013-02-18 11:44:00,10.0,5.8,29.51,East,90,0.0,0.0,83,0.00,,,0.00,WUHU216HW,2013-02-18 20:44:00,
2013-02-18 11:49:00,10.5,6.3,29.50,East,90,0.0,0.0,83,0.00,,,0.00,WUHU216HW,2013-02-18 20:49:00,
2013-02-18 11:54:00,11.1,6.8,29.50,ENE,68,0.0,0.0,83,0.00,,,0.00,WUHU216HW,2013-02-18 20:54:00,
2013-02-18 11:59:00,12.0,8.0,29.50,NE,45,0.0,0.0,84,0.00,,,0.00,WUHU216HW,2013-02-18 20:59:00,
2013-02-18 12:04:00,14.9,11.1,29.50,ENE,68,0.0,0.0,85,0.00,,,0.00,WUHU216HW,2013-02-18 21:04:00,
2013-02-18 12:09:00,19.2,15.6,29.50,NE,45,0.0,0.0,86,0.00,,,0.00,WUHU216HW,2013-02-18 21:09:00,
2013-02-18 12:14:00,23.5,19.6,29.50,NE,45,0.0,0.0,85,0.00,,,0.00,WUHU216HW,2013-02-18 21:14:00,
2013-02-18 12:19:00,27.3,22.4,29.50,NE,45,0.0,0.0,77,0.00,,,0.00,WUHU216HW,2013-02-18 21:19:00,
2013-02-18 12:24:00,30.7,22.7,29.50,ENE,68,0.0,0.0,72,0.00,,,0.00,WUHU216HW,2013-02-18 21:24:00,
2013-02-18 12:29:00,32.9,24.1,29.51,NE,45,0.0,0.0,70,0.00,,,0.00,WUHU216HW,2013-02-18 21:29:00,
2013-02-18 12:34:00,34.8,24.6,29.51,NE,45,0.0,0.0,66,0.00,,,0.00,WUHU216HW,2013-02-18 21:34:00,
2013-02-18 12:39:00,35.7,24.0,29.51,NNE,23,0.0,0.0,62,0.00,,,0.00,WUHU216HW,2013-02-18 21:39:00,
2013-02-18 12:44:00,36.6,24.8,29.52,ENE,68,0.0,0.0,62,0.00,,,0.00,WUHU216HW,2013-02-18 21:44:00,
2013-02-18 12:49:00,38.8,26.0,29.51,NE,45,0.0,0.0,60,0.00,,,0.00,WUHU216HW,2013-02-18 21:49:00,
2013-02-18 12:54:00,39.5,26.7,29.51,NE,45,0.0,0.0,60,0.00,,,0.00,WUHU216HW,2013-02-18 21:54:00,
2013-02-18 12:59:00,41.1,27.0,29.51,NE,45,0.0,0.0,57,0.00,,,0.00,WUHU216HW,2013-02-18 21:59:00,
2013-02-18 13:04:00,42.4,27.7,29.51,NE,45,0.0,0.0,56,0.00,,,0.00,WUHU216HW,2013-02-18 22:04:00,
2013-02-18 13:09:00,43.1,27.5,29.50,NE,45,0.0,0.0,54,0.00,,,0.00,WUHU216HW,2013-02-18 22:09:00,
2013-02-18 13:14:00,43.3,26.8,29.51,NNE,23,0.0,0.0,52,0.00,,,0.00,WUHU216HW,2013-02-18 22:14:00,
2013-02-18 13:19:00,42.6,24.8,29.50,ENE,68,0.0,0.0,49,0.00,,,0.00,WUHU216HW,2013-02-18 22:19:00,
2013-02-18 13:24:00,42.0,24.8,29.50,NE,45,0.0,0.8,50,0.02,,,0.02,WUHU216HW,2013-02-18 22:24:00,
2013-02-18 13:29:00,42.4,24.6,29.50,NE,45,0.4,0.8,49,0.02,,,0.02,WUHU216HW,2013-02-18 22:29:00,
2013-02-18 13:34:00,41.9,23.0,29.50,NE,45,0.0,0.4,47,0.02,,,0.02,WUHU216HW,2013-02-18 22:34:00,
2013-02-18 13:39:00,39.9,20.6,29.50,NNE,23,0.0,0.4,46,0.02,,,0.02,WUHU216HW,2013-02-18 22:39:00,
2013-02-18 13:44:00,36.3,17.9,29.50,NNW,338,5.5,5.5,47,0.02,,,0.02,WUHU216HW,2013-02-18 22:44:00,
2013-02-18 13:49:00,31.2,13.7,29.51,NNE,23,1.1,7.6,48,0.02,,,0.02,WUHU216HW,2013-02-18 22:49:00,
2013-02-18 13:55:00,28.9,12.6,29.50,NNE,23,0.0,7.6,50,0.02,,,0.02,WUHU216HW,2013-02-18 22:55:00,
2013-02-18 14:00:00,26.2,10.9,29.50,NNE,23,0.0,2.6,52,0.02,,,0.02,WUHU216HW,2013-02-18 23:00:00,
2013-02-18 14:05:00,24.6,9.8,29.50,North,0,0.0,2.6,53,0.02,,,0.02,WUHU216HW,2013-02-18 23:05:00,
2013-02-18 14:10:00,23.5,9.6,29.51,NNE,23,0.0,2.0,55,0.02,,,0.02,WUHU216HW,2013-02-18 23:10:00,
2013-02-18 14:15:00,23.0,9.5,29.51,NE,45,0.0,2.0,56,0.02,,,0.02,WUHU216HW,2013-02-18 23:15:00,
2013-02-18 14:20:00,22.6,9.5,29.51,NNE,23,0.0,2.0,58,0.02,,,0.02,WUHU216HW,2013-02-18 23:20:00,
2013-02-18 14:25:00,22.2,9.6,29.51,NE,45,0.0,2.0,58,0.00,,,0.02,WUHU216HW,2013-02-18 23:25:00,
2013-02-18 14:30:00,21.7,9.1,29.50,ENE,68,0.0,0.0,58,0.00,,,0.02,WUHU216HW,2013-02-18 23:30:00,
2013-02-18 14:35:00,21.3,9.2,29.51,NE,45,0.0,0.0,60,0.00,,,0.02,WUHU216HW,2013-02-18 23:35:00,
2013-02-18 14:40:00,21.0,9.3,29.50,NE,45,0.0,0.0,60,0.00,,,0.02,WUHU216HW,2013-02-18 23:40:00,
2013-02-18 14:45:00,21.0,9.3,29.51,NNE,23,0.0,0.0,60,0.00,,,0.02,WUHU216HW,2013-02-18 23:45:00,
2013-02-18 14:50:00,20.8,10.0,29.50,NE,45,0.0,0.0,62,0.00,,,0.02,WUHU216HW,2013-02-18 23:50:00,
2013-02-18 14:55:00,21.0,10.0,29.50,NE,45,0.0,0.0,62,0.00,,,0.02,WUHU216HW,2013-02-18 23:55:00,
2013-02-18 15:01:00,20.8,10.1,29.51,NE,45,0.0,0.0,63,0.00,,,0.02,WUHU216HW,2013-02-19 00:01:00,
2013-02-18 15:06:00,20.8,10.1,29.51,NE,45,0.0,0.0,63,0.00,,,0.02,WUHU216HW,2013-02-19 00:06:00,
2013-02-18 15:11:00,20.6,9.9,29.51,ENE,68,0.0,0.0,63,0.00,,,0.02,WUHU216HW,2013-02-19 00:11:00,
2013-02-18 15:16:00,20.4,9.8,29.51,ENE,68,0.0,0.0,63,0.00,,,0.02,WUHU216HW,2013-02-19 00:16:00,
2013-02-18 15:21:00,20.3,9.9,29.51,ENE,68,0.0,0.0,64,0.00,,,0.02,WUHU216HW,2013-02-19 00:21:00,
2013-02-18 15:26:00,20.3,9.9,29.51,NE,45,0.0,0.0,64,0.00,,,0.02,WUHU216HW,2013-02-19 00:26:00,
2013-02-18 15:31:00,20.1,9.7,29.50,ENE,68,0.0,0.0,64,0.00,,,0.02,WUHU216HW,2013-02-19 00:31:00,
2013-02-18 15:36:00,19.7,9.7,29.51,ENE,68,0.0,0.0,65,0.00,,,0.02,WUHU216HW,2013-02-19 00:36:00,
2013-02-18 15:41:00,19.5,9.5,29.51,ENE,68,0.0,0.0,65,0.00,,,0.02,WUHU216HW,2013-02-19 00:41:00,
2013-02-18 15:46:00,19.2,9.2,29.51,NE,45,0.0,0.0,65,0.00,,,0.02,WUHU216HW,2013-02-19 00:46:00,
2013-02-18 15:51:00,19.2,9.2,29.50,NE,45,0.0,0.0,65,0.00,,,0.02,WUHU216HW,2013-02-19 00:51:00,
2013-02-18 15:56:00,19.2,9.5,29.50,NE,45,0.0,0.0,66,0.00,,,0.02,WUHU216HW,2013-02-19 00:56:00,
2013-02-18 16:01:00,19.4,9.7,29.49,NE,45,0.0,2.0,66,0.00,,,0.02,WUHU216HW,2013-02-19 01:01:00,
2013-02-18 16:06:00,19.5,9.9,29.49,NNE,23,0.0,2.0,66,0.00,,,0.02,WUHU216HW,2013-02-19 01:06:00,
2013-02-18 16:11:00,19.5,9.9,29.49,ENE,68,0.0,0.0,66,0.00,,,0.02,WUHU216HW,2013-02-19 01:11:00,
2013-02-18 16:16:00,19.4,9.7,29.49,NE,45,0.0,0.0,66,0.00,,,0.02,WUHU216HW,2013-02-19 01:16:00,
2013-02-18 16:21:00,19.2,9.5,29.49,NE,45,0.0,0.0,66,0.00,,,0.02,WUHU216HW,2013-02-19 01:21:00,
2013-02-18 16:26:00,19.2,9.5,29.48,NE,45,0.0,0.0,66,0.00,,,0.02,WUHU216HW,2013-02-19 01:26:00,
2013-02-18 16:32:00,19.0,9.4,29.48,ENE,68,0.0,1.5,66,0.00,,,0.02,WUHU216HW,2013-02-19 01:32:00,
2013-02-18 16:37:00,18.6,9.1,29.48,NE,45,0.0,1.5,66,0.00,,,0.02,WUHU216HW,2013-02-19 01:37:00,
2013-02-18 16:42:00,18.5,8.9,29.48,NE,45,0.0,0.0,66,0.00,,,0.02,WUHU216HW,2013-02-19 01:42:00,
2013-02-18 16:47:00,17.9,8.7,29.49,NE,45,0.0,0.0,67,0.00,,,0.02,WUHU216HW,2013-02-19 01:47:00,
2013-02-18 16:52:00,17.7,8.6,29.48,NE,45,0.0,0.0,67,0.00,,,0.02,WUHU216HW,2013-02-19 01:52:00,
2013-02-18 16:57:00,17.7,8.6,29.48,NE,45,0.0,0.0,67,0.00,,,0.02,WUHU216HW,2013-02-19 01:57:00,
2013-02-18 17:02:00,17.2,8.4,29.48,NE,45,0.0,0.0,68,0.00,,,0.02,WUHU216HW,2013-02-19 02:02:00,
2013-02-18 17:07:00,16.5,8.0,29.48,NE,45,0.0,0.0,68,0.00,,,0.02,WUHU216HW,2013-02-19 02:07:00,
2013-02-18 17:12:00,15.9,7.1,29.49,NE,45,0.0,0.0,68,0.00,,,0.02,WUHU216HW,2013-02-19 02:12:00,
2013-02-18 17:17:00,15.4,7.0,29.49,NE,45,0.0,0.0,69,0.00,,,0.02,WUHU216HW,2013-02-19 02:17:00,
2013-02-18 17:22:00,14.3,6.3,29.49,NE,45,0.0,0.0,70,0.00,,,0.02,WUHU216HW,2013-02-19 02:22:00,
2013-02-18 17:27:00,13.8,5.9,29.49,NE,45,0.0,0.0,70,0.00,,,0.02,WUHU216HW,2013-02-19 02:27:00,
2013-02-18 17:32:00,13.2,5.3,29.49,NE,45,0.0,0.0,70,0.00,,,0.02,WUHU216HW,2013-02-19 02:32:00,
2013-02-18 17:37:00,12.7,4.9,29.49,NE,45,0.0,0.0,71,0.00,,,0.02,WUHU216HW,2013-02-19 02:37:00,
2013-02-18 17:43:00,12.0,4.3,29.50,NE,45,0.0,0.0,71,0.00,,,0.02,WUHU216HW,2013-02-19 02:43:00,
2013-02-18 17:48:00,11.4,4.1,29.50,NE,45,0.0,0.0,72,0.00,,,0.02,WUHU216HW,2013-02-19 02:48:00,
2013-02-18 17:53:00,10.9,3.5,29.50,NE,45,0.0,0.0,72,0.00,,,0.02,WUHU216HW,2013-02-19 02:53:00,
2013-02-18 17:58:00,10.2,2.8,29.50,NE,45,0.0,0.0,72,0.00,,,0.02,WUHU216HW,2013-02-19 02:58:00,
2013-02-18 18:03:00,10.0,3.0,29.50,NE,45,0.0,0.0,73,0.00,,,0.02,WUHU216HW,2013-02-19 03:03:00,
2013-02-18 18:08:00,9.5,2.2,29.49,NE,45,0.0,0.0,73,0.00,,,0.02,WUHU216HW,2013-02-19 03:08:00,
2013-02-18 18:13:00,8.6,1.7,29.49,NE,45,0.0,0.0,73,0.00,,,0.02,WUHU216HW,2013-02-19 03:13:00,
2013-02-18 18:18:00,7.8,1.0,29.50,NE,45,0.0,0.0,73,0.00,,,0.02,WUHU216HW,2013-02-19 03:18:00,
2013-02-18 18:23:00,7.5,0.6,29.50,NE,45,0.0,0.0,73,0.00,,,0.02,WUHU216HW,2013-02-19 03:23:00,
2013-02-18 18:28:00,6.9,0.1,29.50,NE,45,0.0,0.0,73,0.00,,,0.02,WUHU216HW,2013-02-19 03:28:00,
2013-02-18 18:33:00,6.4,-0.1,29.50,NE,45,0.0,0.0,74,0.00,,,0.02,WUHU216HW,2013-02-19 03:33:00,
2013-02-18 18:38:00,6.0,-0.5,29.50,NE,45,0.0,0.0,74,0.00,,,0.02,WUHU216HW,2013-02-19 03:38:00,
2013-02-18 18:43:00,5.5,-1.0,29.50,NE,45,0.0,0.0,74,0.00,,,0.02,WUHU216HW,2013-02-19 03:43:00,
2013-02-18 18:48:00,5.0,-1.5,29.50,NE,45,0.0,0.0,74,0.00,,,0.02,WUHU216HW,2013-02-19 03:48:00,
2013-02-18 18:53:00,4.6,-1.9,29.50,NE,45,0.0,0.0,74,0.00,,,0.02,WUHU216HW,2013-02-19 03:53:00,
2013-02-18 18:58:00,4.1,-2.4,29.50,NE,45,0.0,0.0,74,0.00,,,0.02,WUHU216HW,2013-02-19 03:58:00,
2013-02-18 19:03:00,3.5,-2.9,29.50,NE,45,0.0,0.0,74,0.00,,,0.02,WUHU216HW,2013-02-19 04:03:00,
2013-02-18 19:08:00,3.3,-3.1,29.50,NE,45,0.0,0.0,74,0.00,,,0.02,WUHU216HW,2013-02-19 04:08:00,
2013-02-18 19:13:00,3.0,-3.4,29.50,NE,45,0.0,0.0,74,0.00,,,0.02,WUHU216HW,2013-02-19 04:13:00,
2013-02-18 19:18:00,2.4,-4.0,29.49,NE,45,0.0,0.0,74,0.00,,,0.02,WUHU216HW,2013-02-19 04:18:00,
2013-02-18 19:23:00,2.3,-4.1,29.49,NE,45,0.0,0.0,74,0.00,,,0.02,WUHU216HW,2013-02-19 04:23:00,
2013-02-18 19:29:00,2.3,-4.1,29.49,NE,45,0.0,0.0,74,0.00,,,0.02,WUHU216HW,2013-02-19 04:29:00,
2013-02-18 19:34:00,2.1,-4.0,29.49,NE,45,0.0,0.0,75,0.00,,,0.02,WUHU216HW,2013-02-19 04:34:00,
2013-02-18 19:38:00,1.7,-4.4,29.49,NE,45,0.0,0.0,75,0.00,,,0.02,WUHU216HW,2013-02-19 04:38:00,
2013-02-18 19:43:00,1.4,-4.8,29.49,NE,45,0.0,0.0,75,0.00,,,0.02,WUHU216HW,2013-02-19 04:43:00,
2013-02-18 19:49:00,1.0,-5.1,29.49,NE,45,0.0,0.0,75,0.00,,,0.02,WUHU216HW,2013-02-19 04:49:00,
2013-02-18 19:54:00,0.5,-5.6,29.49,NE,45,0.0,0.0,75,0.00,,,0.02,WUHU216HW,2013-02-19 04:54:00,
2013-02-18 19:59:00,0.3,-5.8,29.49,NE,45,0.0,0.0,75,0.00,,,0.02,WUHU216HW,2013-02-19 04:59:00,
2013-02-18 20:00:00,0.1,-6.0,29.48,NE,45,0.0,0.0,75,0.00,,,0.02,WUHU216HW,2013-02-19 05:00:00,
2013-02-18 20:06:00,-0.2,-6.3,29.48,NE,45,0.0,0.0,75,0.00,,,0.02,WUHU216HW,2013-02-19 05:06:00,
2013-02-18 20:11:00,-0.5,-6.7,29.48,NE,45,0.0,0.0,75,0.00,,,0.02,WUHU216HW,2013-02-19 05:11:00,
2013-02-18 20:15:00,-0.7,-6.8,29.48,NE,45,0.0,0.0,75,0.00,,,0.02,WUHU216HW,2013-02-19 05:15:00,
2013-02-18 20:21:00,-1.1,-7.2,29.48,NE,45,0.0,0.0,75,0.00,,,0.02,WUHU216HW,2013-02-19 05:21:00,
2013-02-18 20:26:00,-1.1,-7.2,29.48,NE,45,0.0,0.0,75,0.00,,,0.02,WUHU216HW,2013-02-19 05:26:00,
2013-02-18 20:31:00,-1.4,-7.5,29.48,NE,45,0.0,0.0,75,0.00,,,0.02,WUHU216HW,2013-02-19 05:31:00,
2013-02-18 20:36:00,-1.6,-7.7,29.47,NE,45,0.0,0.0,75,0.00,,,0.02,WUHU216HW,2013-02-19 05:36:00,
2013-02-18 20:41:00,-1.4,-7.5,29.47,NE,45,0.0,0.0,75,0.00,,,0.02,WUHU216HW,2013-02-19 05:41:00,
2013-02-18 20:46:00,-1.4,-7.5,29.47,NE,45,0.0,0.0,75,0.00,,,0.02,WUHU216HW,2013-02-19 05:46:00,
2013-02-18 20:51:00,-1.6,-7.7,29.47,NE,45,0.0,0.0,75,0.00,,,0.02,WUHU216HW,2013-02-19 05:51:00,
2013-02-18 20:56:00,-1.6,-7.4,29.47,NE,45,0.0,0.0,76,0.00,,,0.02,WUHU216HW,2013-02-19 05:56:00,
2013-02-18 21:01:00,-1.6,-7.4,29.47,NE,45,0.0,0.0,76,0.00,,,0.02,WUHU216HW,2013-02-19 06:01:00,
2013-02-18 21:06:00,-1.8,-7.6,29.47,NE,45,0.0,0.0,76,0.00,,,0.02,WUHU216HW,2013-02-19 06:06:00,
2013-02-18 21:11:00,-2.0,-7.7,29.47,NE,45,0.0,0.0,76,0.00,,,0.02,WUHU216HW,2013-02-19 06:11:00,
2013-02-18 21:16:00,-2.2,-7.9,29.47,NE,45,0.0,0.0,76,0.00,,,0.02,WUHU216HW,2013-02-19 06:16:00,
2013-02-18 21:21:00,-2.3,-8.1,29.47,NE,45,0.0,0.0,76,0.00,,,0.02,WUHU216HW,2013-02-19 06:21:00,
2013-02-18 21:26:00,-2.5,-8.3,29.47,NE,45,0.0,0.0,76,0.00,,,0.02,WUHU216HW,2013-02-19 06:26:00,
2013-02-18 21:31:00,-2.9,-8.6,29.48,NE,45,0.0,0.0,76,0.00,,,0.02,WUHU216HW,2013-02-19 06:31:00,
2013-02-18 21:36:00,-3.1,-8.8,29.49,NE,45,0.0,0.0,76,0.00,,,0.02,WUHU216HW,2013-02-19 06:36:00,
2013-02-18 21:41:00,-3.2,-9.0,29.49,North,0,1.7,1.7,76,0.00,,,0.02,WUHU216HW,2013-02-19 06:41:00,
2013-02-18 21:46:00,-3.2,-9.0,29.50,NE,45,0.0,1.7,76,0.00,,,0.02,WUHU216HW,2013-02-19 06:46:00,
2013-02-18 21:51:00,-3.4,-9.2,29.50,NE,45,0.0,0.0,76,0.00,,,0.02,WUHU216HW,2013-02-19 06:51:00,
2013-02-18 21:56:00,-3.6,-9.4,29.50,NE,45,0.0,0.0,76,0.00,,,0.02,WUHU216HW,2013-02-19 06:56:00,
2013-02-18 22:01:00,-3.8,-9.5,29.50,NE,45,0.0,0.0,76,0.00,,,0.02,WUHU216HW,2013-02-19 07:01:00,
2013-02-18 22:06:00,-4.1,-9.9,29.51,ESE,113,0.0,0.0,76,0.00,,,0.02,WUHU216HW,2013-02-19 07:06:00,
2013-02-18 22:11:00,-4.1,-9.9,29.52,ESE,113,0.0,0.0,76,0.00,,,0.02,WUHU216HW,2013-02-19 07:11:00,
2013-02-18 22:16:00,-4.1,-9.9,29.52,ESE,113,0.0,0.0,76,0.00,,,0.02,WUHU216HW,2013-02-19 07:16:00,
2013-02-18 22:21:00,-4.1,-9.9,29.52,ESE,113,0.0,0.0,76,0.00,,,0.02,WUHU216HW,2013-02-19 07:21:00,
2013-02-18 22:26:00,-4.0,-9.7,29.52,SSE,158,0.0,0.0,76,0.00,,,0.02,WUHU216HW,2013-02-19 07:26:00,
2013-02-18 22:31:00,-3.8,-9.5,29.51,SSE,158,0.0,0.0,76,0.00,,,0.02,WUHU216HW,2013-02-19 07:31:00,
2013-02-18 22:36:00,-3.6,-9.1,29.51,East,90,0.0,0.0,77,0.00,,,0.02,WUHU216HW,2013-02-19 07:36:00,
2013-02-18 22:41:00,-3.2,-8.7,29.50,East,90,0.0,0.0,77,0.00,,,0.02,WUHU216HW,2013-02-19 07:41:00,
2013-02-18 22:46:00,-3.2,-8.7,29.49,East,90,0.0,0.0,77,0.00,,,0.02,WUHU216HW,2013-02-19 07:46:00,
2013-02-18 22:51:00,-2.9,-8.1,29.49,East,90,0.0,0.0,78,0.00,,,0.02,WUHU216HW,2013-02-19 07:51:00,
2013-02-18 22:56:00,-2.5,-7.7,29.49,East,90,0.0,0.0,78,0.00,,,0.02,WUHU216HW,2013-02-19 07:56:00,
2013-02-18 23:01:00,-2.3,-7.6,29.50,East,90,0.0,0.0,78,0.00,,,0.02,WUHU216HW,2013-02-19 08:01:00,
2013-02-18 23:06:00,-2.0,-7.2,29.49,East,90,0.0,0.0,78,0.00,,,0.02,WUHU216HW,2013-02-19 08:06:00,
2013-02-18 23:11:00,-1.6,-6.8,29.49,East,90,0.0,0.0,78,0.00,,,0.02,WUHU216HW,2013-02-19 08:11:00,
2013-02-18 23:16:00,-1.3,-6.2,29.49,East,90,0.0,0.0,79,0.00,,,0.02,WUHU216HW,2013-02-19 08:16:00,
2013-02-18 23:21:00,-1.1,-6.0,29.48,East,90,0.0,0.0,79,0.00,,,0.02,WUHU216HW,2013-02-19 08:21:00,
2013-02-18 23:26:00,-1.1,-6.0,29.48,East,90,0.0,0.0,79,0.00,,,0.02,WUHU216HW,2013-02-19 08:26:00,
2013-02-18 23:31:00,-0.7,-5.7,29.47,East,90,0.0,0.0,79,0.00,,,0.02,WUHU216HW,2013-02-19 08:31:00,
2013-02-18 23:36:00,-0.7,-5.7,29.47,East,90,0.0,0.0,79,0.00,,,0.02,WUHU216HW,2013-02-19 08:36:00,
2013-02-18 23:41:00,-0.7,-5.7,29.46,East,90,0.0,0.0,79,0.00,,,0.02,WUHU216HW,2013-02-19 08:41:00,
2013-02-18 23:46:00,-0.7,-5.7,29.46,East,90,0.0,0.0,79,0.00,,,0.02,WUHU216HW,2013-02-19 08:46:00,
2013-02-18 23:51:00,-0.5,-5.5,29.47,East,90,0.0,0.0,79,0.00,,,0.02,WUHU216HW,2013-02-19 08:51:00,
2013-02-18 23:56:00,-0.2,-5.2,29.47,East,90,0.0,0.0,79,0.00,,,0.02,WUHU216HW,2013-02-19 08:56:00,